COSMOS 1610

Satellite information

Favourite Embed

Satellite Type and Status

PAYLOADIN ORBIT

Key statistics

Satellite COSMOS 1610 at a glance.

Uptime

15004

Days in orbit

Revolutions

≈ 13.7

Per day

Orbit

LEO

Low Earth Orbit

Inclination

82.9

Latest

Satellite identification and parameters

Extended collection of information and parameters for COSMOS 1610.

Object identification

Identified? True

Debris? False

Object name: COSMOS 1610

International designator: 1984-118A

Object number (NORAD): 15398

Object ID (CCSDS): 15398

Country: COMMONWEALTH OF INDEPENDENT STATES (CIS)

Current information (Y/N): Y

RCS size: LARGE

Orbital parameters

Period: 104.808 minutes

Inclination: 82.9489 deg

SMA: 7363.595 km

Apoapsis: 1008.081 km

Periapsis: 962.84 km

RAAN: 270.8002 deg

Eccentricy: 0.00307194

Argument of periapsis: 298.5053 deg

Mean anomaly: 177.9912 deg

Mean motion: 13.73940362 rev/day

Mean motion (dot): 0.00000087 rev/day2

B* drag term: 0.000076667372 1/REarth

Two-line elements (TLE)

Creation date: Dec. 13, 2025, 5:47 p.m.

Reference frame: TEME

Reference center: EARTH

Epoch: Dec. 13, 2025, 7:59 a.m. UTC

TLE line 0: 0 COSMOS 1610

TLE line 1: 1 15398U 84118A 25347.33272765 .00000087 00000-0 76667-4 0 9995

TLE line 2: 2 15398 82.9489 270.8002 0030719 298.5053 177.9912 13.73940362 59355

Live tracking on map

Real-time ground track for satellite COSMOS 1610.

In-orbit conjunctions

A list of the most updated potential collisions computed for object COSMOS 1610.

Target Orbit TCA Probability of collision Miss distance Type
FENGYUN 1C DEB SSO 2025-12-07 17:54:38 0.0002264161 69.0 (m) DEBRIS
FENGYUN 1C DEB SSO 2024-09-13 05:09:47 0.0002618329 803.0 (m) DEBRIS

Associated space launch

Navigation satellite providing location information for the Tsiklon-B navigation system

COSMOS 1610 was lifted into orbit during the mission ‘Kosmos-3M | Parus 47’, on board a Kosmos-3M space rocket.

The launch took place on Nov. 15, 1984, 6:40 a.m. from 132/1 (132L).

For more information about the launch, click the button.

Launch to space Kosmos-3M | Parus 47
Kosmos-3M | Parus 47

Agency: N/A

Status: Launch Successful

Launch date: Nov. 15, 1984, 6:40 a.m. UTC

Rocket: Kosmos-3M

Launch pad: 132/1 (132L)

Location: Plesetsk Cosmodrome, Russian Federation

...

Latest news about this satellite

There are no fresh news available about this satellite. Check back as we update our databases every day.


Newsletter sign-up

Weekly statistics, charts and insights to help you stay on top of the space industry.